{"data":{"norad_id":45578,"epoch":"2026-05-25T03:14:45.813408Z","epoch_age_seconds":60542,"freshness":"FRESH","line1":"1 45578U 20025AZ  26145.13525247  .00066391  00000+0  79063-3 0  9997","line2":"2 45578  53.0470  55.7446 0005690  62.0262 298.1326 15.60492556337578","mean_motion":15.60492556,"eccentricity":0.000569,"inclination_deg":53.047,"raan_deg":55.7446,"arg_perigee_deg":62.0262,"mean_anomaly_deg":298.1326,"bstar":0.00079063,"rev_number":33757,"period_min":92.278556181719,"perigee_km":382.38436950568,"apogee_km":390.08222290276,"semimajor_km":6764.3702962042,"source":"CELESTRAK","updated_at":"2026-05-25T13:38:16.424549Z"}}